Weather History for CWYY - September, 2012

Change the Weather History Date:

Wednesday, September 5, 2012

  Actual Average Record
Temperature  
Mean Temperature 65 °F -  
Max Temperature 82 °F - - ()
Min Temperature 48 °F - - ()
Growing Degree Days 15 (Base 50)    
Moisture  
Dew Point 48 °F    
Average Humidity 53    
Maximum Humidity 93    
Minimum Humidity 28    
Precipitation  
Precipitation 0.00 in - - ()
Sea Level Pressure  
Sea Level Pressure 30.03 in    
Wind  
Wind Speed 4 mph ()    
Max Wind Speed 18 mph    
Max Gust Speed 29 mph    
T = Trace of Precipitation, MM = Missing Value Source: Averaged Metar Reports

Daily Weather History Graph

Daily Weather History Graph

Search for Another Location

Airport or City:

Trip Planner

Search our weather history database for the weather conditions in past years. The results will help you decide how hot, cold, wet, or windy it might be!

Date:

Astronomy

Sep. 05, 2012 Rise Set
Actual Time 6:20 AM PDT 7:30 PM PDT
Civil Twilight 5:48 AM PDT 8:03 PM PDT
Nautical Twilight 5:08 AM PDT 8:42 PM PDT
Astronomical Twilight 4:26 AM PDT 9:23 PM PDT
Moon 9:29 PM PDT (9/5) 12:02 PM PDT (9/5)
Length of Visible Light 14h 14m
Length of Day
13h 09m
Waning Gibbous, 75% of the Moon is Illuminated
Sep 5
Waning Gibbous
Sep 8
Last Quarter
Sep 15
New
Sep 22
First Quarter
Sep 29
Full

Hourly Weather History & Observations

Time (PDT) Temp. Dew Point Humidity Pressure Visibility Wind Dir Wind Speed Gust Speed Precip Events Conditions
5:00 AM 48.7 °F 46.0 °F 90% 30.08 in - Calm Calm - N/A   Unknown
6:00 AM 48.6 °F 46.6 °F 93% 30.08 in - ENE 1.2 mph - N/A   Unknown
7:00 AM 49.3 °F 46.6 °F 90% 30.10 in - East 1.2 mph - N/A   Unknown
8:00 AM 54.5 °F 50.0 °F 85% 30.08 in - NE 1.2 mph - N/A   Unknown
9:00 AM 61.2 °F 46.0 °F 58% 30.06 in - North 1.2 mph - N/A   Unknown
10:00 AM 64.9 °F 44.2 °F 47% 30.04 in - NNW 1.2 mph - N/A   Unknown
11:00 AM 68 °F 45 °F 32% 30.01 in - West 1.2 mph - -  
11:00 AM 68.0 °F 44.8 °F 43% 30.01 in - West 1.2 mph - N/A   Unknown
12:00 PM 70.9 °F 43.5 °F 37% 29.98 in - SW 3.5 mph - N/A   Unknown
1:00 PM 73.8 °F 46.9 °F 38% 29.95 in - NW 2.3 mph - N/A   Unknown
2:00 PM 79.0 °F 43.5 °F 28% 30.13 in - NW 5.8 mph - N/A   Unknown
3:00 PM 79.0 °F 43.3 °F 28% 30.11 in - NW 8.1 mph - N/A   Unknown
4:00 PM 79.5 °F 44.6 °F 29% 30.09 in - NW 6.9 mph - N/A   Unknown
5:00 PM 74 °F 49 °F 30% 29.92 in - NNW 16.1 mph - -  
5:00 PM 73.9 °F 48.6 °F 41% 29.92 in - NNW 16.1 mph 26.5 mph N/A   Unknown
6:00 PM 72.7 °F 49.1 °F 43% 29.94 in - NNW 18.4 mph 28.8 mph N/A   Unknown
7:00 PM 70.3 °F 50.9 °F 50% 29.98 in - NNW 15.0 mph 23.0 mph N/A   Unknown
8:00 PM 67.5 °F 51.3 °F 56% 30.00 in - NNW 13.8 mph 24.2 mph N/A   Unknown
9:00 PM 67.8 °F 50.9 °F 55% 30.02 in - NW 8.1 mph - N/A   Unknown
10:00 PM 65.1 °F 52.9 °F 65% 30.03 in - NNW 5.8 mph - N/A   Unknown
11:00 PM 63 °F 52 °F 57% 30.04 in - North 4.6 mph - -  
11:00 PM 63.0 °F 51.6 °F 66% 30.04 in - North 4.6 mph - N/A   Unknown